This is the latest recevied weather packets stored in our database for station/object WX2NJ-13. If no packets are shown the sender has not sent any weather packets the latest 10 day(s).
| Time | Temp. | Humidity | Pressure | Rain* | Wind** | Luminosity | Snow |
|---|---|---|---|---|---|---|---|
| 1777838047 | 16.67° C | 33% | 1012.3 hPa | 0 mm | 1.34 m/s, 326° | - | - |
| 1777837748 | 17.22° C | 30% | 1012.4 hPa | 0 mm | 0.89 m/s, 94° | - | - |
| 1777837447 | 17.22° C | 32% | 1012.4 hPa | 0 mm | 0 m/s | - | - |
| 1777837148 | 17.22° C | 31% | 1012.5 hPa | 0 mm | 0.45 m/s, 193° | - | - |
| 1777836850 | 17.22° C | 33% | 1012.5 hPa | 0 mm | 0.89 m/s, 270° | - | - |
| 1777836548 | 16.67° C | 34% | 1012.6 hPa | 0 mm | 0.45 m/s, 186° | - | - |
| 1777836250 | 16.67° C | 34% | 1012.6 hPa | 0 mm | 1.34 m/s, 329° | - | - |
| 1777835951 | 16.11° C | 35% | 1012.6 hPa | 0 mm | 1.34 m/s, 257° | - | - |
| 1777835650 | 16.11° C | 33% | 1012.7 hPa | 0 mm | 0.45 m/s, 354° | - | - |
| 1777835351 | 16.11° C | 37% | 1012.8 hPa | 0 mm | 0.89 m/s, 246° | - | - |
| 1777835053 | 16.11° C | 34% | 1012.7 hPa | 0 mm | 1.34 m/s, 308° | - | - |
| 1777834751 | 16.11° C | 33% | 1012.7 hPa | 0 mm | 0.89 m/s, 145° | - | - |
| 1777834453 | 16.11° C | 36% | 1012.7 hPa | 0 mm | 0.45 m/s, 42° | - | - |
| 1777834154 | 16.11° C | 35% | 1012.8 hPa | 0 mm | 1.79 m/s, 89° | - | - |
| 1777833853 | 16.11° C | 35% | 1012.9 hPa | 0 mm | 0.89 m/s, 300° | - | - |
| 1777833554 | 16.11° C | 35% | 1013 hPa | 0 mm | 1.79 m/s, 221° | - | - |
| 1777833255 | 15.56° C | 34% | 1012.9 hPa | 0 mm | 1.79 m/s, 287° | - | - |
| 1777832954 | 15.56° C | 37% | 1013 hPa | 0 mm | 1.79 m/s, 201° | - | - |
| 1777832655 | 15° C | 36% | 1013.1 hPa | 0 mm | 0.45 m/s, 264° | - | - |
| 1777832357 | 15° C | 36% | 1013.1 hPa | 0 mm | 1.79 m/s, 263° | - | - |
| 1777832055 | 15° C | 36% | 1013.1 hPa | 0 mm | 1.34 m/s, 82° | - | - |
| 1777831757 | 15° C | 38% | 1013 hPa | 0 mm | 0.45 m/s, 46° | - | - |
| 1777831458 | 15° C | 38% | 1013.1 hPa | 0 mm | 0.89 m/s, 325° | - | - |
| 1777831157 | 14.44° C | 39% | 1013.2 hPa | 0 mm | 0.89 m/s, 52° | - | - |
| 1777830858 | 14.44° C | 39% | 1013.2 hPa | 0 mm | 0.89 m/s, 242° | - | - |
* Rain latest hour (hover to see other rain measurements)
** Current wind speed in m/s (hover to see current wind gust speed)